Regional Weather Roundup
Issued by NWS Wakefield, VA

Home | Current Version | Previous Version | Graphics & Text | Print | Product List | Glossary On
Versions: 1 2 3 4 5 6 7 8 9 10 11 12 13 14 15 16 17 18 19 20 21 22 23 24 25 26 27 28 29 30 31 32 33 34 35 36 37 38 39 40 41 42 43 44 45 46 47 48 49 50
000
ASUS41 KAKQ 180610
RWRAKQ

REGIONAL WEATHER ROUNDUP
NATIONAL WEATHER SERVICE WAKEFIELD VA
200 AM EDT THU SEP 18 2014

Note: "fair" indicates few or no clouds below 12,000 feet with no
significant weather and/or obstructions to visibility. * = Denotes
station may not report precipitation (e.g., rain,snow,etc.),
thunder or fog.

VAZ042-051-052>054-056-180700-
NORTHERN VIRGINIA

CITY           SKY/WX    TMP DP  RH WIND       PRES   REMARKS
WASH NATIONAL  MOCLDY    66  52  60 CALM      29.98S
DULLES         MOCLDY    55  51  86 CALM      29.98S
FORT BELVOIR   MOCLDY    56  55  95 CALM      29.98S
QUANTICO       PTCLDY    58  55  90 NW8       29.98S
FREDERICKSBRG* MOCLDY    56  56 100 CALM      29.96F
STAFFORD*      PTCLDY    52  52 100 CALM      30.01S
WARRENTON      FOG       51  51 100 CALM      29.97S VSB 1/2
CULPEPER*      CLEAR     54  54 100 CALM      29.99S FOG
MANASSAS*      CLEAR     54  54 100 CALM      29.98S
LEESBURG*      MOCLDY    55  55 100 CALM      29.99R
WINCHESTER     CLEAR     54  52  94 CALM      29.97S
FRONT ROYAL*   CLEAR     54  52  94 CALM      29.96S
LURAY*         PTCLDY    54  54 100 CALM      29.98S
$$

VAZ048-049-060>072-079>083-180700-
CENTRAL AND SOUTH CENTRAL VIRGINIA...AND NORTH CENTRAL NORTH CAROLINA

CITY           SKY/WX    TMP DP  RH WIND       PRES   REMARKS
RICHMOND       CLEAR     62  58  86 CALM      29.96F
CHESTERFIELD*  CLEAR    N/A N/A N/A CALM      29.97F
PETERSBURG*    FOG       55  54  96 CALM      29.97F VSB 1
HANOVER        PTCLDY    58  56  93 CALM      29.98S
TAPPAHANNOCK*  CLEAR     54  51  90 CALM      29.98S
CHARLOTTSVILLE CLEAR     56  53  90 CALM      29.98S
ORANGE*        PTCLDY    52  50  93 CALM      29.99S FOG
LOUISA*        CLOUDY    55  54  94 CALM      29.97S
FARMVILLE*     CLOUDY    55  55 100 CALM      29.96S
CREWE*         CLEAR     57  55  95 CALM      29.97S
FORT PICKETT*  CLEAR     60  59  97 CALM      29.97S
LUNENBURG*     CLEAR     60  59  96 CALM      29.97S
SOUTH HILL*    PTCLDY    61  61 100 CALM      30.01F
LAWRENCEVILLE* CLEAR     59  59  99 CALM      29.95F
ROANOKE RAPIDS PTCLDY    59  59 100 CALM      29.95F FOG
RALEIGH        PTCLDY    65  59  81 SE3       29.96F
$$

VAZ088>098-180700-
SOUTHEAST VIRGINIA

CITY           SKY/WX    TMP DP  RH WIND       PRES   REMARKS
NORFOLK        CLEAR     63  57  81 CALM      29.95F
VIRGINIA BEACH CLEAR     61  55  81 CALM      29.95S
NORFOLK NAVAL  CLEAR     64  58  80 CALM      29.96F
WEST POINT*    CLEAR     60  57  89 CALM      29.97S
NEWPORT NEWS   CLEAR     61  57  87 CALM      29.96S
LANGLEY AFB    CLEAR     60  60 100 NW2       29.95S
FORT EUSTIS    CLEAR     61 N/A N/A SE2       29.94F
WILLIAMSBURG*  CLEAR     63  61  94 E3        29.96F
HR EXEC AP*    CLEAR     54  52  94 CALM      29.98S
FRANKLIN*      CLEAR     57  57 100 CALM      29.96S
WAKEFIELD      CLEAR     58  55  90 CALM      29.96S
$$

VAZ020-022-025-037-045-180700-
WEST CENTRAL AND SOUTHWEST VIRGINIA

CITY           SKY/WX    TMP DP  RH WIND       PRES   REMARKS
STAUNTON*      CLEAR     55  51  89 CALM      30.00S
HOT SPRINGS VA PTCLDY    52  40  62 S5        30.05F
LYNCHBURG      CLEAR     55  55 100 CALM      29.99F
DANVILLE       CLEAR     59  56  89 CALM      29.97S
SOUTH BOSTON*  NOT AVBL
MARTINSVILLE   MOCLDY    55  55 100 CALM      30.00F FOG
ROANOKE        PTCLDY    57  55  93 CALM      30.00F
BLACKSBURG     MOCLDY    57  57 100 CALM      30.02F
DUBLIN*        CLOUDY    58  58 100 CALM      30.02S
MARION*        FOG       55  54  96 CALM      30.04S VSB 1/4
HILLSVILLE*    PTCLDY    56  56  99 S3        30.02F FOG
RICHLANDS*     FOG       58  57  95 CALM      30.01S VSB<1/4
WISE*          CLEAR     54  54 100 CALM      30.02S
ABINGDON*      CLEAR     56  56  99 CALM      29.99F FOG
$$

MDZ021>025-VAZ099-100-180700-
SOUTHERN MARYLAND AND THE DELMARVA PENINSULA

CITY           SKY/WX    TMP DP  RH WIND       PRES   REMARKS
PATUXENT RIVER CLOUDY    63  56  78 S3        29.96F
BAY BRIDGE APT   N/A     63  52  67 CALM      29.97S
LEONARDTOWN    CLOUDY    55  52  88 CALM      29.98S
DOVER          CLEAR     56  50  80 SW2       29.95F
GEORGETOWN     PTCLDY    54  50  86 CALM      29.98S
EASTON         PTCLDY    57  56  96 CALM      30.01S
CAMBRIDGE      PTCLDY    55  54  94 CALM      29.96F
SALISBURY      CLEAR     55  50  83 CALM      29.97S
OCEAN CITY     CLEAR     51  49  92 CALM      29.97S
WALLOPS ISLAND CLEAR     57  54  89 CALM      29.96F
ACCOMACK*      CLEAR     54  52  94 CALM      29.96S
$$

NCZ012>017-030>032-180700-
EASTERN NORTH CAROLINA

CITY           SKY/WX    TMP DP  RH WIND       PRES   REMARKS
ELIZABETH CITY MOCLDY    67  61  81 NE6       29.95S
AHOSKIE*       MOCLDY    61  59  94 CALM      29.96S
EDENTON*       PTCLDY    63  61  94 NE3       29.94F
CURRITUCK*     PTCLDY    69  56  64 NE3       29.95S
KILL DEVIL HLS MOCLDY    71  59  66 NE6       29.92S
MANTEO         MOCLDY    70  59  68 NE12      29.93F
CAPE HATTERAS  CLEAR     69  62  78 NE8       29.91F
TARBORO*       PTCLDY    61  60  95 CALM      29.96S FOG
GOLDSBORO      PTCLDY    65  64  97 CALM      29.93S
WASHINGTON     PTCLDY    62  60  95 CALM      29.95R
GREENVILLE     PTCLDY    63  61  94 CALM      29.96F FOG
NEW BERN       CLEAR     68  62  81 N6        29.94S
WILMINGTON     PTCLDY    68  66  93 NE8       29.90F
$$

VAZ048-180700-
ELSEWHERE

CITY           SKY/WX    TMP DP  RH WIND       PRES   REMARKS
HARRISBURG PA  PTCLDY    54  48  80 CALM      29.97S
BALTIMORE      PTCLDY    53  51  93 CALM      29.97S
ANNAPOLIS      CLEAR     61  55  81 CALM      29.96F
ANDREWS AFB    PTCLDY    56  52  86 CALM      29.97S
WILMINGTON DE  CLEAR     56  53  90 CALM      29.99S
PHILADELPHIA   CLEAR     63  53  70 S3        29.98S
WILDWOOD NJ*   CLEAR     54  48  82 CALM      29.98S
ATLANTIC CITY  PTCLDY    53  51  93 W3        29.97F
HENDERSON NC   CLEAR     63  58  86 CALM      29.97S
GREENSBORO     CLOUDY    64  61  90 CALM      29.96F
ROCKY MOUNT    MOCLDY    62  60  93 CALM      29.95F
FAYETTEVILLE   MOCLDY    68  64  87 NE5       29.93F
CHARLOTTE      MOCLDY    65  62  90 NW5       29.96F FOG
$$

VAZ100-180700-
MARINE

STATION/POSITION TIME  TEMP    WIND        PRES    WAVE   SWELL
                       AIR SEA DIR/SP/G            HT/PER HT/PER
                 (UTC) (F)     (DEG/KT/KT) (MB)    (FT/S) (FT/S)
44066 TX TWR #4  0600   67 74   30/ 10/ 12 1014.1F   4/14   3/14
CAPE MAY NJ      0600   60 75   CALM  /  1 1014.3F
LEWES DE         0600   63 72  230/  5/  5 1014.4F
15NM E FENWICK I 0600   68 72              1014.5F   4/13
OCEAN-CITY-INLET 0600   67 72  110/  2/  4 1014.3S
WACHAPREAGUE VA  0600   61 75  330/  1/  3 1014.3F
THOMAS POINT MD  0600   68 74  160/ 12/ 13 1015.6F
GOOSES REEF MD   0600   69     150/ 10/ 12 1015.1S
COVE POINT MD    0600   69     170/ 11/ 12 1014.5S
SOLOMONS ISLAND  0600      76                N/A
BISHOPS HEAD MD  0600   68 72  130/  7/  8 1014.1F
PINEY POINT MD   0600          190/  8/ 10   N/A
POTOMAC MD       0600   70     160/  8/ 10 1013.9S
CAMBRIDGE MD     0600   61 75  180/  3/  4 1014.5F
LEWISETTA VA     0600   65 74  230/  3/  3 1014.2S
RAPPAHANNOCK LGT 0600           90/  6/  7 1014.8S
STINGRAY PT      0600   70     140/  8/ 10   N/A
YORK RVR RNG VA  0600   70     140/  8/  9 1013.8R
YORKTOWN VA      0600   67 76  190/  2/  3 1013.9S
JAMESTOWN VA     0600   70     120/  4/  4   N/A
DOMINION TERM VA 0600   71     100/  5/  7 1014.2F
KIPTOPEKE VA     0600      78  100/  4/  4   N/A
CHES BAY BRIDGE  0600   71 75   60/  8/ 11 1013.7R
CAPE HENRY VA    0600   70      70/  9/ 10 1013.0S
CHESAPEAKE LGHT  0500   70      70/ 11/ 12 1014.9F
WILLOUBY STN VA  0600   71      60/  3/  5 1012.9S
S CRANEY ISL VA  0600           80/  4/  5 1013.9F
CAPE HENRY BUOY  0600      75                N/A     4/14   3/14
1ST LANDING BUOY 0600   71      80/  8/ 12 1013.8S
CAPE CHARLES BUO 0600      75                N/A     4/11   3/11
OFFSHORE WE BUOY 0600      74                N/A     4/11   5/11
64NM E OF VA BCH 0600   72 77   30/ 14/ 16 1012.9F   5/13   3/13
DUCK PIER NC     0600   72 76   50/ 13/ 15 1013.0F
44100 DUCK FRF   0600      74                N/A     5/13   3/13
44056 DUCK FRF   0600                        N/A     4/13   3/13
OREGON INLET NC  0600   72 76   40/ 12/ 15 1013.2F
HATTERAS NC      0600   73 78   40/ 10/ 15 1013.2S
DIAMOND SHLS NC  0600   73      40/ 17/ 19 1011.9F   6/ 7   3/11
CAPE LOOKOUT NC  0500   75      50/ 16/ 19 1012.4F
$$


USA.gov is the U.S. government's official web portal to all federal, state and local government web resources and services.